Location: G�kdere
(37.0328°N, 30.9000°E)
Time: 01:57:45
(UTC+00:00)

Meteor 1-13 Rocket - Pass Details

Date: 03 March 2021
Orbit: 830 x 913 km, 81.3° (Epoch: 22 April)

Event Time Altitude Azimuth Distance (km) Brightness Sun altitude
Rises 17:55:50 0° 350° (N) 3,549 7.7 -25.3°
Reaches altitude 10° 17:58:19 10° 350° (N) 2,599 7.0 -25.8°
Maximum altitude 18:04:16 86° 263° (W) 906 4.2 -26.9°
Enters shadow 18:05:54 50° 177° (S) 1,124 4.6 -27.3°
